Powrót do katalogu

CZ-6A DEB

AktywnyPO
NORAD 54302·DEBRIS·🇨🇳 China

Wystrzelony Nov 11, 2022 z Taiyuan Satellite Launch Center

Loading…

Następne Przeloty (najbliższe 24 godziny)

TLE

ŚwieżeSource: Space-Track

Epoka: Sep 14, 2026, 18:51 UTC

1 54302U 22151AV  26257.78610822  .00004002  00000-0  62375-3 0  9993
2 54302  98.8895  24.1800 0094544 282.6988  76.3659 14.70625264203869

Śledź CZ-6A DEB w czasie rzeczywistym z AllMySat

Download on the App Store